RH
98 98 103 103 103 103 103 105 103 97 93 90 86 87 90 92 93 94 93 88 78 68 60 55 55 58 67 81 96 99 90 82 79 75 66 54 44 43 44 42 42 44 43 42 46 44 42 42 42 48 56 53 54 63 67 68 71 75 80 81 77 73 70 71 72 70 69 69 69 69 66 62 58 56 53 48 45 44 46 48 44 42 41 41 41
92 93 103 102 102 104 102 102 103 101 98 97 94 91 93 95 94 93 89 84 77 68 59 54 54 57 62 71 87 96 92 86 80 73 63 52 46 45 47 48 46 46 46 47 53 54 49 50 50 51 59 58 53 60 64 62 65 70 76 77 72 70 71 74 75 77 80 81 79 75 71 68 66 65 63 53 44 43 50 53 48 43 40 40 41
87 92 102 102 101 102 102 101 101 101 99 100 99 97 98 97 95 95 90 81 74 67 62 59 58 61 65 69 76 83 91 90 79 68 61 53 47 45 48 52 51 49 50 57 66 66 60 60 59 52 57 61 54 56 62 63 66 73 79 78 75 74 76 80 81 86 93 99 99 92 82 75 71 69 67 60 46 42 50 56 53 48 43 41 42
84 90 96 100 100 101 103 102 101 101 99 100 99 99 100 94 89 93 93 85 77 74 74 73 70 70 74 73 69 78 94 91 71 62 60 55 50 46 48 53 57 56 55 66 80 79 73 73 69 54 52 60 59 57 62 66 68 71 76 77 77 79 85 91 93 97 102 104 100 90 81 77 75 71 68 66 53 42 46 56 56 51 47 45 43
83 89 91 96 99 103 105 102 102 101 100 99 98 98 95 86 81 91 100 94 90 91 93 90 82 81 87 84 78 88 98 81 61 59 60 57 52 47 49 55 61 61 61 73 85 86 85 86 78 59 48 55 61 62 66 72 75 75 79 84 87 91 97 101 102 103 101 94 87 80 77 77 77 74 70 68 61 49 46 51 52 50 51 50 48
81 82 83 90 97 103 107 106 104 102 103 100 97 98 96 91 91 98 103 100 98 102 106 100 91 94 99 95 94 98 90 67 54 56 58 56 53 51 54 60 64 64 67 78 86 91 96 92 81 66 53 52 59 65 71 77 78 78 87 96 98 99 102 102 98 95 89 84 81 79 79 78 76 72 68 65 62 56 49 48 49 51 51 50 51
76 75 76 87 95 96 99 104 106 104 104 102 100 101 99 99 101 103 102 101 102 103 107 105 101 105 106 102 100 93 73 55 49 50 54 54 53 56 59 64 66 66 73 84 90 97 101 90 79 72 64 61 61 65 74 82 81 79 87 95 95 96 95 90 84 80 78 76 74 73 74 75 75 72 67 61 58 56 53 52 53 54 52 51 53
70 68 70 78 86 89 94 101 106 105 103 102 102 101 100 101 102 102 102 102 103 103 105 105 106 106 102 99 92 77 59 48 46 46 52 55 55 58 62 64 64 67 81 90 92 97 100 90 79 76 74 74 72 67 73 85 88 86 87 89 88 87 83 79 76 73 68 60 56 59 65 71 75 74 72 68 64 62 60 58 58 58 57 57 59
64 69 76 80 85 93 98 101 104 103 103 102 101 100 99 101 102 102 103 103 103 103 101 98 98 94 88 85 76 63 50 43 45 49 54 58 59 61 62 62 63 75 90 93 91 92 98 93 80 75 76 81 83 73 72 85 98 101 94 88 85 81 77 74 71 67 57 46 43 49 58 64 68 69 69 70 71 71 69 68 68 67 68 69 70
72 86 93 93 96 101 98 99 102 101 101 101 100 102 99 99 104 105 104 101 98 97 94 86 81 77 71 67 61 53 45 44 48 53 59 62 63 65 63 61 69 88 100 94 87 87 96 95 79 70 71 81 90 81 72 80 98 106 98 90 85 79 76 72 67 62 52 43 42 46 54 58 59 58 59 64 70 75 79 81 82 82 82 80 77
92 100 99 98 103 106 99 96 100 101 102 100 100 101 96 95 102 104 102 98 94 93 87 76 69 64 59 57 53 46 44 51 58 61 66 70 72 71 67 68 80 99 102 92 84 86 97 94 72 61 63 74 89 86 73 72 84 93 89 80 77 76 75 72 69 64 53 45 46 48 52 54 52 49 47 52 59 69 77 81 83 82 80 76 71
103 101 98 101 104 105 102 99 100 100 98 97 100 102 97 94 96 98 99 98 93 84 72 61 55 53 53 54 51 48 55 68 74 74 78 81 80 77 77 80 90 100 97 90 88 90 101 91 61 50 56 66 83 86 74 67 71 76 73 66 69 75 77 77 74 66 55 49 49 49 51 50 47 45 43 44 49 56 65 68 69 69 68 66 63
102 101 101 101 101 102 102 100 102 103 98 98 99 100 101 99 99 98 94 89 80 70 64 58 55 57 62 62 60 65 77 86 89 90 92 91 89 88 91 93 99 102 95 93 94 95 102 87 53 46 57 65 77 81 74 69 70 67 62 60 69 80 83 82 77 66 56 52 52 54 56 53 47 44 41 41 45 48 52 55 56 57 58 58 58
85 98 104 97 99 103 98 93 95 94 94 99 100 101 104 101 102 103 97 90 85 82 82 83 84 86 87 84 82 87 95 97 98 101 100 98 99 99 100 101 102 102 98 94 93 98 99 76 48 48 60 65 71 75 74 76 76 69 62 60 71 85 90 84 75 65 59 57 59 62 62 55 46 41 38 38 41 43 44 44 44 45 46 47 47
65 75 88 88 94 93 87 93 98 92 86 87 89 96 105 102 102 105 104 101 98 98 98 99 101 101 101 100 96 97 99 99 100 104 104 101 102 101 101 103 100 100 100 92 91 99 90 63 48 55 64 67 68 70 71 73 77 76 69 66 78 94 97 88 76 67 64 64 65 66 62 53 44 41 39 36 37 37 38 38 38 39 39 39 38
69 69 81 86 88 78 68 76 88 94 96 93 90 94 100 100 101 103 105 104 100 100 101 101 102 99 100 102 100 98 98 98 101 106 107 101 101 102 101 102 101 101 99 95 98 97 78 57 54 62 68 69 67 68 69 69 78 85 78 76 90 102 102 92 80 71 71 71 69 66 59 51 46 45 43 41 39 38 38 40 40 40 40 39 38
90 88 93 86 80 81 77 71 66 68 76 87 95 99 100 99 100 100 102 104 101 102 101 101 102 99 100 101 100 99 98 99 102 104 104 100 100 101 100 100 101 102 100 100 102 92 73 61 61 70 74 70 67 70 71 71 80 86 81 85 99 103 101 93 82 77 75 72 67 62 57 54 52 50 48 45 43 43 45 48 48 48 46 44 43
101 98 96 83 77 90 98 88 72 60 60 80 95 99 101 100 101 100 99 101 100 100 99 100 101 99 99 102 101 100 99 100 101 100 102 103 101 99 101 102 101 102 103 102 100 90 75 63 65 78 80 74 72 74 75 75 76 76 78 91 102 101 99 94 86 81 75 67 62 60 59 60 59 54 51 50 51 54 57 57 56 54 52 50 48
101 101 100 91 81 92 106 99 86 74 70 85 96 98 101 100 99 100 100 101 100 100 99 98 100 100 100 102 101 100 100 100 102 103 105 104 102 101 101 102 101 102 103 102 100 89 70 62 71 83 86 85 83 80 77 75 75 80 88 98 101 98 98 95 89 81 70 63 63 64 65 66 63 58 55 58 62 64 65 63 61 58 56 55 53
92 98 101 99 88 87 99 99 92 81 69 70 80 92 100 100 101 101 99 100 99 101 101 99 100 100 101 101 101 101 102 103 105 107 107 103 102 102 101 101 101 102 103 101 93 76 65 68 79 91 99 96 89 84 84 85 90 96 99 100 100 100 100 97 86 73 63 64 71 73 72 70 62 55 59 67 71 71 69 66 63 60 57 53 49
85 88 91 97 94 87 86 83 78 71 59 53 59 74 86 93 100 102 102 102 101 103 103 102 101 100 102 103 102 102 101 101 103 105 104 101 101 101 101 103 100 96 93 86 73 61 64 72 80 98 109 103 98 97 96 96 96 96 100 103 103 102 101 93 77 64 65 75 82 79 71 64 54 53 66 76 73 68 63 60 56 52 48 45 42
83 78 72 73 78 83 82 76 68 60 52 45 44 53 63 75 82 82 83 87 93 98 98 98 98 99 101 100 97 96 96 97 100 101 101 101 101 100 101 97 88 83 77 66 56 57 66 69 76 99 111 107 108 104 96 91 89 94 101 101 100 99 94 81 68 69 80 88 83 70 58 51 48 56 68 68 61 56 52 50 47 45 44 42 40
81 70 58 51 55 63 68 69 67 60 50 41 36 39 47 55 60 64 75 85 92 95 95 95 94 95 96 94 94 96 99 101 101 100 100 102 101 98 95 84 73 69 61 50 52 62 69 67 76 100 111 109 108 99 88 84 87 93 94 93 95 93 83 75 77 88 93 83 67 52 45 45 49 56 58 54 51 49 47 46 45 43 41 39 37
79 68 52 41 40 44 50 53 54 51 44 36 31 32 37 42 48 62 82 96 99 98 99 99 97 97 97 96 98 100 102 103 102 102 103 102 99 93 85 72 63 58 49 47 58 70 71 71 86 105 107 103 99 89 83 87 93 95 94 95 95 88 84 87 94 95 82 63 49 43 42 46 50 52 51 49 47 45 45 46 46 45 42 40 38
82 71 53 40 30 29 35 36 36 37 33 28 27 29 34 40 48 61 78 94 100 100 100 100 100 101 101 101 101 100 101 102 102 105 104 99 93 85 74 61 53 48 43 50 64 73 76 82 96 103 97 93 88 83 88 95 99 100 99 99 96 94 97 99 96 82 61 47 42 41 44 48 50 49 47 45 43 44 46 47 49 51 48 45 43
91 77 65 55 36 26 28 29 30 30 29 29 27 28 31 38 46 54 71 92 100 99 99 100 101 101 100 101 100 100 101 101 103 105 100 94 86 76 64 53 46 45 46 55 68 81 87 91 96 96 91 87 83 85 97 100 99 100 100 100 99 101 101 96 84 63 46 41 42 44 48 48 47 45 42 42 44 45 46 48 52 56 56 55 53
94 85 80 69 46 31 30 33 35 31 32 33 30 31 34 35 38 46 67 92 100 100 100 100 100 101 101 100 100 101 101 101 102 100 94 89 80 66 55 48 46 49 52 59 70 82 87 87 92 94 89 83 84 93 101 100 100 101 100 100 101 101 99 89 70 50 41 43 45 47 46 43 42 41 41 43 46 46 47 49 54 56 60 64 65
91 91 89 74 49 37 35 39 44 43 40 38 34 36 37 36 42 55 76 96 101 100 100 100 100 100 100 101 101 101 101 101 100 95 91 85 72 59 51 49 52 55 55 58 67 77 83 87 92 92 86 84 91 100 101 100 100 100 100 102 101 100 95 79 59 46 43 45 46 44 41 40 39 39 42 44 46 47 47 50 54 56 59 63 70
94 94 89 72 51 43 43 40 39 38 38 38 35 35 41 51 59 65 79 95 102 102 100 100 100 100 101 102 102 101 101 101 97 92 86 73 59 52 51 52 57 58 55 60 74 86 90 92 93 91 90 94 99 101 100 100 100 100 101 101 100 98 88 70 55 47 45 45 44 41 39 38 37 38 41 43 45 47 48 50 54 57 58 59 65
97 94 81 64 52 48 51 47 37 28 28 29 29 30 41 56 61 65 81 98 102 100 99 100 100 101 102 101 101 102 100 97 94 86 73 59 50 48 49 55 61 58 57 73 93 99 95 92 94 95 98 101 100 100 100 100 100 101 100 100 99 94 84 68 53 44 44 44 41 38 37 36 36 39 40 42 45 46 48 51 53 56 58 58 60
98 96 81 66 57 50 51 56 48 34 29 28 27 29 35 48 66 81 93 99 99 99 101 102 100 101 103 103 101 98 95 93 87 71 55 47 45 46 49 56 56 53 63 88 104 104 98 97 99 100 100 100 100 100 100 100 101 101 101 102 95 85 77 65 49 42 43 42 38 37 36 35 37 38 39 42 45 46 48 51 54 57 59 60 60
97 96 93 87 75 61 56 62 57 42 36 32 29 30 30 46 82 102 101 99 100 100 100 99 100 103 103 99 96 93 90 83 66 50 43 44 45 47 52 54 54 60 79 99 104 102 100 100 100 100 100 101 101 100 100 100 101 101 101 98 86 74 66 54 42 41 43 40 37 37 36 37 38 39 41 43 44 46 49 51 55 58 60 62 62
94 90 97 95 81 71 65 67 64 49 42 37 33 35 34 42 71 91 95 99 101 99 101 102 103 102 97 94 93 87 74 58 43 38 40 45 48 50 52 52 55 69 92 103 101 99 101 100 100 101 101 100 100 100 101 102 102 101 97 85 69 58 50 42 39 41 41 39 37 38 39 40 41 41 44 45 46 48 50 53 56 60 62 64 65
79 84 97 86 72 74 72 71 68 55 48 45 37 38 39 39 49 60 70 84 92 96 96 93 92 90 87 87 81 65 49 39 36 39 41 44 51 54 54 56 60 74 94 104 102 101 103 103 102 102 101 101 101 101 102 103 102 97 84 66 50 42 39 38 39 40 39 38 37 40 42 43 45 46 46 48 49 50 52 54 58 62 64 66 71
71 84 92 74 67 75 75 77 72 58 56 56 46 43 43 40 40 41 45 52 59 67 72 75 80 78 70 61 50 39 36 36 36 38 39 42 47 51 52 56 65 78 90 97 100 104 107 108 107 105 103 102 102 102 103 103 98 86 68 50 38 35 35 36 38 39 38 37 38 41 45 48 51 51 51 52 52 52 54 56 59 64 66 68 75
86 85 71 63 82 90 81 77 67 57 63 65 58 52 49 46 44 42 43 48 56 67 75 75 66 55 45 38 35 35 37 39 39 40 41 41 43 46 50 59 73 85 94 98 102 107 109 107 106 104 102 102 104 104 102 97 85 69 53 40 34 34 35 37 38 38 37 37 39 43 49 55 59 59 59 58 55 53 54 57 61 65 67 70 79
102 88 62 68 99 100 83 71 60 55 62 69 67 60 56 57 58 59 65 73 80 77 66 54 42 36 36 34 32 33 33 35 38 39 40 42 42 42 46 57 68 76 85 90 90 96 106 106 103 103 102 102 102 98 91 80 68 55 43 35 33 34 36 38 37 37 38 39 42 48 57 64 65 66 67 65 61 56 55 59 63 67 69 74 83
100 83 68 83 102 97 79 64 58 61 64 70 70 59 53 55 56 63 71 71 66 55 42 37 34 31 29 25 24 26 29 32 34 38 43 45 47 48 49 53 56 57 64 69 69 81 100 105 102 102 101 98 93 84 74 62 52 44 36 32 32 34 37 38 37 39 41 43 48 57 67 72 71 71 72 71 67 62 60 62 66 70 73 79 86
94 78 80 97 103 96 76 53 55 69 70 70 69 55 47 49 49 52 55 52 45 40 35 32 28 25 23 23 25 26 30 36 39 46 55 59 63 66 67 67 65 63 68 77 84 93 102 104 101 98 93 86 73 58 48 40 35 32 31 31 33 35 37 37 39 41 43 48 56 65 74 76 74 75 77 76 73 67 64 65 68 71 75 81 87
99 90 93 100 101 98 77 46 46 71 80 73 65 56 48 46 48 48 45 42 38 33 31 27 26 28 28 25 24 28 35 43 49 56 64 68 68 70 76 81 80 79 83 90 96 97 96 96 95 90 79 63 46 34 30 28 27 28 31 34 35 37 39 39 42 44 47 58 66 72 80 82 79 82 84 81 78 70 66 68 71 74 80 88 94
102 99 96 97 99 102 88 56 41 59 82 79 60 52 49 44 45 44 39 37 35 30 30 32 32 33 31 28 28 31 37 44 50 54 54 52 51 53 62 68 70 76 85 92 99 101 98 94 89 79 61 42 30 28 29 28 28 30 33 37 38 39 40 42 47 51 57 68 75 81 89 84 79 85 87 84 82 74 68 71 73 78 86 94 101
101 100 100 100 100 102 97 79 56 48 63 77 67 52 49 48 45 44 39 36 36 34 34 36 38 37 35 33 31 30 34 43 49 47 43 41 39 41 46 47 46 50 56 64 74 81 83 81 74 61 44 32 28 29 29 29 32 35 37 39 39 39 39 44 54 61 66 71 76 84 88 80 77 85 88 87 86 75 67 70 74 78 85 91 96
101 99 99 99 100 101 92 83 78 59 46 63 79 70 60 56 49 44 43 41 40 42 45 46 45 42 37 35 34 33 40 53 57 50 47 46 39 42 51 46 37 35 36 38 42 46 50 51 48 42 34 30 29 29 30 33 36 38 38 39 40 39 41 50 63 70 69 68 72 79 81 78 78 83 84 85 83 72 65 70 74 78 85 91 95
102 100 101 99 97 100 90 78 84 77 50 49 72 85 82 73 59 47 45 50 54 59 65 65 56 46 41 38 36 35 37 46 46 38 38 38 31 34 44 40 33 32 33 33 33 33 34 34 33 33 31 30 30 30 33 36 37 38 38 38 39 43 49 58 68 73 69 67 70 72 76 81 78 71 71 76 73 66 66 72 76 81 88 96 102
101 100 101 102 98 97 95 87 82 80 69 54 54 74 91 90 80 66 54 54 64 73 81 84 76 61 50 44 42 41 38 37 36 32 31 31 29 30 33 32 34 37 37 36 34 33 33 32 31 31 31 32 32 34 36 37 37 37 36 37 41 47 55 61 67 71 69 68 68 64 69 79 74 67 75 83 77 72 77 81 83 89 94 101 107
101 100 99 102 102 95 96 100 91 84 87 73 47 50 72 82 84 85 78 70 72 78 84 91 92 81 65 53 48 46 43 40 39 38 35 32 32 33 32 33 36 39 40 38 35 34 34 33 33 33 33 34 34 34 36 36 36 37 37 42 46 51 58 64 68 70 70 71 70 66 71 83 85 88 99 102 93 87 88 87 87 92 97 103 109
101 102 99 97 103 101 96 103 101 91 93 90 64 46 53 63 71 81 89 85 77 75 78 85 95 97 87 76 67 61 58 53 46 43 41 39 38 36 36 36 37 38 40 39 36 35 35 35 36 36 37 37 36 36 37 38 39 41 44 48 52 57 63 68 70 72 73 76 80 80 86 98 105 107 107 101 90 83 81 81 84 91 98 103 108
100 98 92 87 93 97 95 99 104 98 94 97 90 70 57 61 68 70 75 78 70 64 64 67 73 80 83 87 91 90 83 73 62 53 48 45 43 41 40 41 41 41 41 40 40 40 39 39 41 41 40 41 41 41 43 45 47 50 52 55 58 63 68 70 73 77 81 87 93 96 100 106 107 100 91 83 75 71 74 79 85 92 99 104 108
101 97 91 82 76 78 83 90 99 102 100 98 100 93 76 69 73 71 68 73 74 67 62 59 55 53 54 61 78 95 101 94 79 66 57 53 50 49 48 47 47 47 45 44 44 44 43 44 44 44 44 44 44 46 48 52 55 58 59 61 64 66 69 73 78 83 88 92 96 98 98 97 93 84 75 71 68 69 75 81 88 96 101 105 109
100 100 99 92 82 78 82 87 90 97 101 96 94 98 92 82 84 85 79 77 77 73 68 65 62 56 49 44 51 71 94 104 95 78 68 65 60 56 54 54 54 53 50 49 48 46 45 45 45 47 47 47 48 50 52 54 57 58 59 61 63 66 69 72 76 80 85 88 91 93 90 86 82 75 69 67 68 71 78 83 90 98 103 107 109
100 100 101 100 98 95 93 94 94 96 99 94 88 95 101 97 95 98 95 88 86 86 87 88 87 83 74 61 49 48 64 88 99 90 77 72 69 65 62 60 59 59 57 54 51 48 47 47 47 49 50 51 51 52 53 54 55 56 58 60 63 66 68 71 74 77 80 84 89 91 88 84 81 74 68 67 68 72 79 85 90 97 103 107 108
Wind_Speed
43 44 43 42 42 42 41 41 40 38 37 36 35 34 33 32 31 32 34 36 37 36 35 34 33 31 31 31 31 31 31 30 30 29 28 27 25 24 23 23 23 24 26 25 25 28 30 31 31 26 23 22 19 16 14 13 11 11 13 14 16 17 17 18 18 18 18 18 19 19 18 18 17 18 19 19 18 16 15 15 15 15 15 16 16
42 43 44 44 42 41 40 40 39 38 37 36 35 33 32 31 31 31 34 35 35 35 34 35 34 33 32 32 32 32 32 31 30 29 28 27 25 24 23 22 23 25 26 25 25 27 29 31 31 27 23 22 20 17 15 14 13 12 14 16 17 18 18 18 19 18 19 20 21 21 21 20 20 21 21 21 20 18 18 18 18 18 18 18 18
42 41 42 43 42 40 39 39 38 38 37 35 34 33 31 31 31 31 33 33 33 34 34 35 36 34 32 32 32 32 32 31 30 29 28 26 25 24 23 23 24 26 26 24 24 26 28 30 31 28 23 21 20 18 16 15 14 14 15 17 19 19 19 19 19 19 20 21 22 23 23 23 23 24 23 22 21 20 21 21 22 21 21 21 21
41 40 40 41 42 41 40 40 40 39 37 36 35 34 32 32 32 32 33 32 33 34 34 35 36 35 33 32 32 32 32 31 29 29 28 26 25 25 24 24 25 26 26 23 24 26 28 30 30 28 24 21 19 18 17 16 15 15 16 18 19 20 20 21 21 21 23 24 24 25 25 25 25 25 24 23 23 22 23 24 25 24 24 23 23
42 40 39 41 42 43 42 42 42 42 40 39 38 36 35 34 34 33 33 32 33 34 34 35 36 35 34 33 33 32 31 29 28 28 27 26 26 26 26 25 25 27 26 23 24 26 28 30 31 28 25 21 19 19 18 17 16 16 16 18 20 22 23 23 24 25 25 25 25 25 25 25 25 26 25 24 24 24 25 26 27 27 27 26 25
44 44 43 43 43 43 43 43 43 43 42 42 41 39 36 35 33 32 32 32 33 34 35 35 35 34 34 33 33 32 30 28 27 28 27 27 27 26 27 26 26 27 25 23 24 26 28 31 31 29 26 23 20 19 19 18 17 17 18 19 21 22 23 23 24 24 24 23 23 23 24 24 24 25 25 24 24 25 26 27 29 29 29 27 27
48 48 47 45 44 44 43 43 42 42 42 42 41 38 34 32 31 31 32 33 34 34 34 33 33 33 33 33 32 30 28 27 27 28 28 28 27 27 27 27 27 27 25 23 25 26 29 31 31 29 27 24 22 21 20 18 18 18 18 19 20 20 21 21 22 21 21 22 22 23 23 23 23 23 23 23 23 24 26 27 29 29 29 28 28
48 47 46 45 44 42 38 37 37 37 38 38 37 33 30 29 29 31 32 33 33 33 33 32 31 32 32 32 30 28 27 28 29 29 29 28 27 27 27 28 28 27 24 24 26 27 30 33 31 29 27 25 24 23 21 20 19 19 19 20 20 20 20 21 21 20 20 21 22 22 22 21 21 22 22 23 24 25 26 27 28 29 29 29 29
46 43 40 39 35 30 27 28 30 31 32 33 32 30 29 29 30 31 32 32 32 32 31 30 30 30 31 30 29 27 28 29 29 29 28 28 28 29 29 29 28 26 25 26 28 28 31 34 33 30 28 26 25 24 22 20 19 19 20 20 20 20 20 20 20 20 20 21 22 21 21 20 20 21 22 23 24 25 27 28 28 29 30 31 32
38 35 33 32 27 26 25 25 27 27 27 29 31 31 31 31 31 32 32 31 31 30 28 27 29 30 31 31 29 28 29 31 30 28 28 28 29 30 31 31 28 26 26 28 30 30 33 36 35 32 30 28 26 25 23 21 20 20 21 21 20 20 20 20 20 19 20 21 22 21 21 20 21 22 23 24 25 27 28 29 30 31 32 33 34
31 30 32 34 33 32 30 27 29 30 30 30 33 35 33 31 32 32 31 30 29 28 28 29 31 32 33 31 29 29 31 31 30 29 28 29 29 30 32 31 28 27 29 31 32 33 36 39 38 35 32 29 27 26 24 23 22 21 21 21 21 21 21 21 20 20 21 22 22 22 21 21 22 24 25 26 27 28 29 29 30 31 32 32 32
29 31 31 33 35 35 32 30 32 35 36 34 33 33 33 32 31 31 30 29 30 31 32 33 33 32 31 29 29 30 30 29 31 31 30 30 30 31 32 31 29 29 32 34 34 35 39 43 41 36 32 29 27 26 24 23 23 23 23 23 22 22 21 21 21 21 22 23 23 23 23 23 24 26 26 26 26 27 27 28 29 29 29 29 29
27 28 30 32 32 33 33 35 36 37 38 36 33 32 34 34 32 31 31 31 32 32 32 31 30 30 29 29 30 31 30 31 32 32 31 32 32 32 32 31 31 32 34 35 36 38 43 44 41 35 31 28 26 24 23 23 24 24 24 24 23 22 21 21 22 23 24 24 25 25 24 25 26 27 27 26 25 25 25 26 26 26 27 27 27
28 27 31 33 32 34 38 40 40 39 38 37 35 34 34 34 33 32 31 30 30 29 27 25 25 28 31 32 32 31 32 33 33 32 32 33 34 34 33 33 34 35 37 37 38 41 44 44 39 34 30 27 25 23 23 24 25 26 26 25 23 22 22 22 23 24 25 26 26 26 25 26 26 26 26 26 25 25 24 24 25 25 26 26 27
31 30 32 33 32 35 40 42 42 40 38 38 37 35 34 34 32 31 30 28 28 28 27 25 27 31 34 35 34 33 34 35 34 32 33 34 34 35 36 37 38 39 39 39 41 43 44 42 38 33 29 27 25 24 24 25 26 27 26 25 23 22 22 23 25 26 26 26 27 27 26 26 27 27 27 27 26 26 25 25 26 26 27 27 28
31 31 29 30 29 32 35 38 41 42 41 41 39 36 34 33 32 32 32 30 29 30 30 32 34 36 37 36 36 36 36 35 34 33 33 34 35 37 38 39 40 41 42 42 43 44 43 41 37 32 29 27 26 25 25 25 26 26 26 25 23 22 23 25 26 27 27 27 28 27 27 27 27 28 29 29 28 28 28 28 28 29 30 30 31
29 29 27 29 29 31 33 34 37 38 40 42 40 37 35 34 33 33 34 33 33 34 35 36 37 37 37 38 38 37 36 35 34 34 35 36 37 38 40 41 42 44 45 44 44 44 43 41 36 31 28 27 25 24 24 25 24 24 24 23 22 22 24 26 27 28 28 28 29 28 27 28 29 31 31 31 30 29 29 30 31 32 33 34 34
28 29 30 32 32 33 35 36 36 37 39 40 39 37 36 36 35 34 34 34 35 35 36 36 36 37 38 38 37 37 36 35 35 36 37 38 39 40 42 42 42 44 45 45 46 46 44 40 34 30 28 26 24 24 24 23 23 22 22 22 23 24 26 27 28 29 29 30 29 28 28 30 31 32 33 32 31 30 31 31 32 33 35 36 37
31 32 34 36 37 38 38 38 37 37 39 40 40 39 38 38 36 33 33 34 34 34 35 37 38 39 38 36 35 35 35 36 37 38 39 39 40 42 43 41 41 44 46 47 48 47 43 39 34 31 28 25 24 24 24 23 22 21 21 22 24 26 27 28 29 29 30 30 28 28 30 31 32 33 33 31 31 31 31 33 34 36 37 39 40
37 39 41 42 42 42 42 41 39 38 40 42 42 43 43 42 39 37 36 36 36 36 37 38 39 37 36 35 35 36 37 38 38 39 39 40 42 43 43 42 42 44 46 47 47 45 41 37 33 30 27 25 25 24 23 22 21 21 22 24 26 27 28 29 30 30 30 29 28 30 31 32 32 32 31 30 30 31 33 35 37 39 41 43 44
41 42 43 43 45 46 45 44 43 42 42 43 44 45 46 45 43 42 42 42 42 41 41 40 40 40 39 39 39 39 39 39 38 38 39 40 41 41 43 44 43 44 45 45 45 42 38 35 32 29 27 25 24 23 23 22 21 22 23 25 27 27 28 29 30 29 28 28 29 31 32 32 31 30 29 29 30 31 34 36 39 41 43 45 46
38 39 39 40 42 44 46 47 47 46 44 44 44 45 47 46 45 45 44 43 42 42 42 42 42 42 42 42 41 40 40 39 38 38 37 37 39 40 42 44 44 44 44 43 42 39 36 34 31 28 26 26 24 23 23 22 22 23 24 26 27 27 29 29 29 28 28 29 30 31 31 30 28 26 26 27 28 30 33 36 39 41 42 44 45
36 36 37 37 38 40 43 44 45 45 45 44 43 44 45 45 44 42 40 39 38 38 38 39 39 40 40 40 40 39 39 38 38 38 38 40 41 42 43 44 44 43 42 41 39 37 34 32 30 28 27 26 25 24 22 22 22 23 24 26 26 27 28 28 28 28 28 29 30 30 29 26 24 23 23 25 27 30 33 36 39 40 42 43 43
35 35 35 36 37 39 39 40 40 41 42 43 43 43 43 43 42 39 37 36 37 37 37 37 37 38 39 38 38 38 38 38 39 40 41 42 42 43 44 45 44 42 41 38 36 34 33 30 28 28 26 24 23 23 22 21 22 23 25 25 26 26 26 27 27 27 28 29 29 28 26 24 22 21 23 25 29 32 35 38 41 43 43 43 43
35 34 33 33 35 38 38 39 39 40 40 41 41 41 41 40 39 38 37 36 37 37 37 38 38 38 38 37 37 38 39 40 40 41 42 42 43 44 45 45 43 41 38 34 33 33 32 29 27 26 24 23 23 22 20 21 22 24 25 25 25 25 26 26 27 27 28 29 28 26 24 21 21 22 24 28 31 34 38 40 43 46 46 45 44
34 33 33 33 33 35 37 38 38 38 37 37 37 38 38 38 37 36 36 35 35 36 37 37 37 37 38 38 38 39 40 40 41 41 41 42 43 44 44 43 41 38 33 30 30 31 30 28 26 25 24 23 22 20 20 22 24 25 24 24 25 25 26 26 27 28 28 27 25 22 21 20 22 24 27 30 34 37 39 42 45 47 48 47 45
33 33 33 33 33 32 33 34 34 33 32 32 33 34 34 34 35 35 34 33 34 35 36 37 37 38 38 39 39 38 39 40 40 40 42 43 44 43 42 41 39 34 30 29 29 30 30 29 26 25 24 23 21 20 22 24 25 24 24 25 26 26 27 28 28 27 27 25 22 20 21 23 25 27 30 33 36 39 41 43 46 48 48 48 47
33 33 34 33 31 29 29 30 31 31 30 30 30 30 30 31 32 31 31 31 32 34 35 36 37 37 38 38 38 38 38 39 40 42 43 44 43 42 41 39 35 31 29 29 30 30 29 28 26 25 23 21 21 22 24 25 25 25 25 26 27 28 28 28 27 26 25 23 21 22 24 26 27 29 31 34 37 40 42 44 47 49 49 49 48
33 33 33 31 28 27 26 27 29 30 30 30 29 29 29 29 30 30 29 29 31 32 33 34 36 37 37 38 39 38 39 40 42 44 44 43 42 40 39 35 33 31 29 29 28 28 27 26 25 23 21 20 22 25 26 25 25 26 27 28 29 28 28 27 27 26 24 22 23 25 26 27 28 30 33 36 39 41 44 46 48 50 50 50 49
33 33 32 28 26 27 27 26 25 26 27 29 29 29 29 29 29 29 29 29 31 32 33 35 36 37 38 38 38 39 40 42 44 45 44 42 41 39 36 33 32 31 30 28 27 27 26 24 22 20 20 22 25 26 26 27 28 29 29 30 29 28 28 27 27 26 24 24 26 27 28 29 30 32 35 38 41 43 45 47 49 51 52 52 51
32 31 28 25 25 27 28 27 25 23 23 25 27 28 29 29 29 30 30 31 33 34 35 37 38 38 38 39 39 41 42 43 44 44 43 41 40 37 34 33 32 31 28 27 26 26 25 23 22 22 24 26 28 29 29 30 30 30 30 30 29 29 28 28 27 27 26 27 29 29 29 31 32 34 37 40 43 45 47 49 51 53 54 54 54
31 29 26 25 27 28 29 28 26 23 22 22 24 26 27 28 29 31 32 33 35 36 38 39 39 40 40 41 42 42 43 44 44 43 41 40 38 36 34 33 32 30 27 26 26 26 25 25 25 26 28 29 30 31 31 31 31 31 31 30 29 30 29 29 29 28 28 30 31 31 32 33 35 37 40 43 46 47 49 51 53 55 56 57 57
33 33 30 30 30 31 31 30 28 25 23 21 22 23 24 27 29 33 35 37 38 39 40 41 42 43 43 43 44 44 44 44 42 40 39 38 38 36 34 33 32 29 27 26 27 27 28 28 29 29 30 30 30 30 31 31 32 32 31 31 31 31 30 30 30 30 31 34 34 34 35 37 39 41 43 46 48 50 52 54 55 57 59 59 61
39 38 35 32 32 33 33 33 30 27 23 21 22 22 24 26 29 32 35 37 40 41 42 43 43 44 43 43 43 43 42 41 39 38 38 37 37 36 35 34 32 30 29 28 29 29 30 30 30 32 31 30 30 31 31 32 33 32 32 32 32 32 32 32 31 32 35 37 37 37 38 40 42 44 46 48 50 53 55 56 58 60 61 62 64
41 38 35 33 34 35 35 34 32 28 24 22 22 22 24 27 29 31 33 34 36 37 38 38 39 40 39 39 38 37 37 37 37 36 36 36 36 36 35 34 33 32 31 30 30 30 30 30 30 31 31 31 31 32 32 33 33 33 33 34 34 34 34 33 33 36 39 39 39 39 41 43 45 47 49 50 52 54 57 58 60 62 63 65 67
36 34 33 34 35 35 34 33 31 29 25 23 24 24 25 26 27 29 29 30 31 31 32 33 33 32 31 29 29 29 30 32 32 33 33 34 35 34 34 34 33 32 31 29 29 29 30 30 30 31 31 31 32 32 33 34 34 35 35 36 36 36 35 34 36 39 42 42 41 42 44 46 48 50 52 53 55 56 58 60 62 64 65 67 69
28 29 32 35 36 32 30 30 29 28 26 24 25 25 26 26 27 27 27 28 29 29 28 26 24 22 22 22 23 24 26 27 28 29 30 31 32 32 33 33 32 32 31 31 30 30 31 31 31 30 30 30 31 32 33 34 35 36 37 38 38 37 36 37 40 43 43 43 43 44 46 48 50 53 54 56 58 59 60 62 65 66 67 69 72
25 29 33 36 34 31 29 30 29 27 26 25 26 26 27 27 27 27 27 28 27 24 20 18 18 19 20 22 23 24 25 26 26 26 27 27 28 28 29 29 30 29 30 30 30 29 30 30 30 29 28 29 31 33 35 36 38 39 39 39 38 38 38 40 43 44 43 43 44 46 48 50 52 55 57 59 61 62 63 64 66 68 69 71 73
28 30 33 35 34 32 32 31 30 28 27 25 25 26 26 26 27 26 26 24 21 18 16 16 17 18 20 21 23 24 24 24 25 25 25 25 24 24 24 25 25 25 25 26 27 27 27 28 29 28 29 31 32 34 36 37 39 40 40 40 40 39 41 43 45 44 43 44 46 48 50 52 55 57 59 61 63 64 65 67 69 69 70 72 75
30 32 34 35 34 33 32 31 30 28 26 25 24 25 25 24 23 22 20 18 16 16 16 17 18 18 19 20 21 22 23 23 23 23 23 23 23 23 23 24 24 23 24 24 25 26 27 28 28 30 32 33 33 34 37 38 40 40 39 40 41 42 44 46 46 44 44 46 49 51 53 55 57 59 61 64 66 67 68 70 72 73 74 75 77
34 36 38 39 38 37 38 37 33 28 25 23 22 21 21 21 19 18 17 16 16 17 18 18 19 19 19 19 20 20 22 22 22 22 22 22 22 23 24 25 25 25 25 26 27 28 29 30 31 32 34 35 35 38 41 42 42 40 39 41 43 43 45 46 47 46 46 48 51 53 55 57 59 61 64 66 69 70 70 72 74 76 77 78 79
40 39 39 40 41 42 45 47 44 36 28 23 21 20 19 19 19 19 18 18 18 19 20 20 21 21 19 19 19 20 20 20 20 21 22 23 23 24 24 25 25 26 27 28 29 31 32 34 34 35 37 38 41 44 46 45 43 41 41 43 45 44 44 45 48 49 49 50 52 55 58 60 61 63 66 69 71 72 72 74 75 76 77 78 80
45 43 40 39 40 40 42 45 45 41 34 27 24 23 22 22 22 22 21 21 21 21 22 23 23 23 21 19 20 20 20 20 20 23 26 27 26 24 24 24 25 26 28 29 31 32 34 36 38 39 41 43 45 47 47 44 42 42 43 44 46 45 45 46 49 52 52 52 54 56 60 62 63 64 68 70 72 74 74 76 77 78 79 81 82
46 45 42 41 42 40 39 40 40 38 35 31 28 27 26 26 26 26 25 25 24 24 24 24 25 25 23 22 22 22 23 24 25 27 30 31 29 26 26 27 28 29 29 30 31 33 35 37 39 41 43 44 45 45 45 43 43 44 45 46 46 47 47 48 51 54 55 55 56 58 61 65 65 66 68 71 74 75 77 79 80 82 83 85 87
46 45 43 43 44 42 39 38 38 37 36 35 34 32 31 30 30 30 30 30 30 29 29 27 27 27 27 26 26 26 27 28 29 31 32 33 33 31 30 31 32 32 33 34 34 34 35 36 37 39 40 41 42 43 44 45 46 47 47 47 48 48 49 51 53 56 58 59 59 60 62 66 68 68 71 75 77 79 81 83 84 86 87 89 91
47 46 43 42 42 41 40 38 39 39 38 38 39 37 36 35 34 34 35 35 35 35 34 33 31 29 29 29 30 30 31 31 32 34 35 37 37 37 36 35 36 36 38 39 39 38 38 38 38 39 40 41 42 43 44 46 48 49 49 50 50 50 52 53 56 58 60 62 63 63 64 68 71 72 74 78 80 82 84 85 86 88 89 91 94
51 50 47 43 41 41 41 41 41 41 39 38 40 40 39 39 38 37 38 38 38 38 37 36 35 33 33 33 33 33 34 35 36 37 38 39 40 41 40 40 40 42 43 43 43 43 43 42 42 43 43 44 44 45 46 48 49 51 52 52 53 54 55 57 59 61 63 65 66 66 67 70 73 74 76 79 81 82 84 86 87 88 90 93 95
53 53 51 48 45 44 45 45 45 45 43 41 40 39 40 40 41 41 41 40 41 41 40 39 39 38 39 39 39 39 39 39 39 40 41 42 43 44 44 44 45 47 47 47 47 47 47 47 47 47 47 48 49 50 51 52 52 53 54 55 55 56 58 59 62 64 66 67 69 70 70 72 75 77 78 80 81 82 84 87 88 90 92 95 97
50 50 50 50 49 48 48 49 49 48 47 47 45 43 42 42 43 44 45 44 44 44 44 44 44 44 45 45 46 46 45 44 43 43 43 44 46 47 48 49 50 51 51 51 51 51 51 50 50 51 51 52 53 54 55 55 56 57 57 58 58 59 60 62 63 66 68 70 72 73 73 75 78 79 80 81 83 84 86 88 90 92 95 97 99
49 48 49 51 51 50 49 50 51 51 50 51 50 48 46 45 44 45 47 48 48 49 50 50 50 51 50 50 50 50 50 48 47 46 46 48 49 51 52 53 54 55 55 55 55 55 55 54 54 55 56 56 56 57 58 59 60 61 61 62 62 63 63 64 66 68 71 73 75 76 77 79 81 83 83 84 84 85 88 90 91 94 97 100 102
50 49 50 50 49 47 46 46 47 49 50 51 52 51 50 48 47 47 48 50 51 52 53 53 52 53 53 53 53 53 54 54 53 51 51 52 53 54 56 57 58 59 59 59 59 59 58 59 59 59 59 60 60 61 61 63 64 65 66 66 66 67 67 68 69 71 73 76 78 80 81 83 85 87 88 88 86 86 89 92 94 97 100 103 106
Wind_Direction
302 300 298 297 294 291 291 292 292 291 291 292 293 294 296 297 296 292 288 287 290 293 295 296 295 295 295 294 295 299 305 313 316 316 318 319 322 325 326 325 323 324 329 337 344 348 351 354 354 350 347 347 343 334 322 308 300 295 294 297 300 305 312 317 321 321 323 325 327 327 326 323 319 315 312 309 305 303 301 300 299 297 295 295 296
305 302 299 298 296 292 290 290 289 288 288 290 291 293 294 295 295 293 290 289 290 292 294 296 296 296 296 294 294 297 303 310 311 312 315 316 320 323 322 320 320 321 325 333 339 342 346 349 351 349 344 344 342 336 329 320 310 300 296 298 303 309 314 317 319 320 322 324 324 324 322 319 316 313 310 305 301 297 298 300 302 301 299 296 293
305 300 298 297 296 292 288 286 286 286 287 288 290 292 293 294 296 295 290 288 289 291 294 296 297 296 295 294 293 296 303 306 307 310 313 314 317 319 318 316 316 318 323 330 335 339 342 344 347 346 343 341 340 336 332 326 317 307 300 301 306 311 315 316 316 317 319 320 319 318 316 313 311 308 305 301 296 293 294 298 302 305 305 303 299
306 301 297 297 296 293 288 284 283 283 285 287 290 291 293 294 296 293 288 287 289 291 293 294 294 294 294 293 293 296 300 302 305 309 311 311 314 316 315 313 312 315 321 327 332 335 338 340 342 342 341 338 336 334 331 327 319 310 304 303 308 312 314 314 313 313 315 316 315 313 312 310 307 305 301 296 291 290 291 296 301 305 307 306 303
307 302 299 298 297 294 289 284 282 282 283 285 287 289 292 294 294 291 287 286 288 289 290 290 291 292 292 291 292 294 295 298 304 307 308 309 311 313 313 311 309 313 319 324 327 331 334 336 336 337 338 335 331 329 327 324 318 313 309 308 309 311 312 311 310 310 311 313 313 312 311 310 308 305 302 296 290 288 289 292 298 304 306 305 304
308 304 301 298 295 291 287 284 282 281 282 283 284 287 291 293 292 289 286 286 287 286 285 286 288 289 288 289 290 291 293 298 304 306 306 307 309 310 310 308 307 310 316 319 323 328 330 332 331 331 333 331 326 322 319 318 315 312 310 309 308 308 309 309 310 311 312 313 314 314 313 312 311 308 306 301 295 291 290 292 296 302 305 305 304
307 305 302 297 291 288 286 284 282 281 282 283 284 287 289 289 287 286 286 287 286 283 282 283 284 284 285 286 287 290 294 300 305 305 305 306 309 309 308 306 305 308 312 315 319 323 326 328 327 326 327 325 321 317 313 311 309 307 305 304 304 305 307 309 312 314 315 317 317 317 316 316 315 314 311 307 302 298 295 296 298 301 303 303 303
306 305 302 296 290 287 285 284 283 282 282 283 284 286 285 283 284 287 287 286 284 281 279 280 280 280 282 283 286 290 297 303 305 306 305 306 308 307 305 304 303 306 309 310 314 317 320 324 324 322 321 319 316 312 308 307 306 305 302 300 301 304 307 311 313 315 318 320 321 321 320 319 319 317 315 311 307 304 301 301 300 301 301 300 300
307 306 303 299 291 280 278 280 280 280 279 279 281 281 281 282 285 287 287 285 282 278 276 277 278 279 280 282 286 292 298 304 305 304 304 305 306 305 304 303 303 304 305 306 308 311 315 320 322 319 316 314 311 307 305 305 304 302 300 297 298 301 306 310 313 316 319 323 325 326 325 324 323 321 318 314 310 306 304 303 302 300 299 299 299
306 305 301 296 285 273 275 274 273 276 274 274 279 281 282 284 285 285 283 282 278 275 275 278 279 280 281 283 288 294 300 303 302 301 302 302 303 303 303 304 302 301 300 302 305 308 313 319 320 317 313 310 307 303 303 305 301 297 296 295 296 299 304 309 313 316 321 326 329 329 329 328 327 325 322 316 311 308 305 303 302 301 300 300 301
299 296 293 288 284 281 279 271 267 270 269 275 284 285 283 283 283 283 282 280 276 273 275 280 281 281 281 284 290 296 301 301 298 299 300 300 302 302 303 303 300 296 296 299 303 307 312 318 318 315 312 308 304 300 300 302 300 296 295 296 298 300 303 308 312 317 322 326 329 329 329 328 328 326 323 318 312 308 305 304 303 302 302 302 303
290 290 285 282 286 283 277 271 268 268 269 276 283 284 284 285 284 282 280 278 275 276 279 281 281 281 282 285 291 297 300 297 295 298 300 299 301 301 301 300 294 291 294 299 302 307 312 316 316 313 309 306 301 296 298 301 301 299 298 299 300 300 302 307 312 317 321 324 326 327 327 327 327 326 323 319 314 309 307 305 304 304 304 304 305
283 281 276 276 280 276 272 272 271 270 272 275 277 279 284 287 286 283 281 279 279 281 282 282 281 282 284 287 291 296 296 294 295 298 298 299 300 300 298 294 290 289 293 298 301 306 310 313 314 310 307 304 297 293 296 302 303 303 302 302 301 300 302 305 310 315 320 323 325 326 326 325 326 324 322 318 314 311 308 307 306 306 306 306 306
276 267 267 271 270 268 271 272 271 271 272 273 274 276 280 285 287 284 282 281 282 285 285 281 281 284 285 288 290 293 293 294 296 296 296 297 297 296 293 289 287 288 292 297 301 305 309 311 311 308 304 299 292 289 293 300 303 303 302 301 300 300 300 303 307 314 320 323 324 324 323 323 323 323 321 318 314 312 310 309 309 309 308 308 306
274 264 265 266 266 272 276 274 272 273 275 275 275 275 276 280 284 282 277 276 279 283 282 278 280 283 284 286 288 290 292 293 294 294 294 294 293 292 288 286 285 288 292 298 302 305 308 309 308 305 300 294 290 288 291 297 301 301 300 300 299 298 299 303 309 315 319 320 321 320 320 320 322 322 321 318 315 313 312 311 311 311 310 309 308
273 267 263 260 269 283 286 280 276 276 276 276 276 275 274 275 277 278 276 273 271 272 271 271 275 280 283 285 287 290 292 292 293 293 293 292 292 290 287 285 286 289 293 298 302 305 307 307 305 301 296 292 290 290 292 297 299 298 297 297 298 298 300 305 310 314 317 317 317 317 318 319 321 320 320 318 316 314 312 312 311 310 309 308 307
270 266 256 254 272 290 294 290 286 282 278 275 275 274 272 272 272 273 275 273 270 269 269 272 276 279 282 283 286 289 290 291 292 292 292 292 291 289 286 285 287 290 294 299 303 305 305 305 302 298 293 291 291 292 295 297 296 293 293 295 296 297 300 305 309 312 314 314 314 315 316 319 320 319 318 317 316 315 313 312 311 310 309 309 309
266 262 253 256 273 287 292 292 291 288 280 275 273 271 270 271 271 272 272 272 272 273 274 275 275 277 279 281 285 287 288 289 290 290 291 291 290 288 286 286 288 291 294 299 303 303 303 302 299 294 291 290 291 293 294 296 294 291 292 293 294 295 298 303 307 310 311 311 311 313 316 318 318 318 317 317 316 315 314 312 311 310 309 308 307
265 259 257 262 273 282 287 288 288 285 277 272 269 267 267 268 268 268 269 271 272 272 272 271 271 274 278 281 284 285 285 286 287 288 290 290 289 287 286 287 289 292 296 300 301 301 301 300 296 292 290 290 291 292 293 294 294 292 291 290 290 292 296 302 306 308 308 308 310 313 316 317 316 315 315 316 316 316 313 311 309 307 306 305 305
272 269 268 269 272 276 280 282 282 281 275 271 268 265 264 264 263 262 263 267 270 270 269 269 271 275 279 281 282 282 282 284 286 288 289 289 287 286 285 285 289 293 297 299 299 298 298 297 294 291 289 289 290 292 293 294 293 290 287 287 288 291 297 302 305 306 306 308 311 314 315 314 313 314 316 317 317 315 313 310 308 307 307 307 308
277 277 276 274 272 272 274 275 277 279 277 273 269 264 263 263 261 260 261 264 267 269 271 272 274 277 280 281 282 283 284 286 288 288 288 287 287 286 286 287 292 296 297 297 297 296 294 292 290 289 287 288 290 293 293 292 290 288 287 288 290 295 299 302 303 305 307 309 312 313 312 311 313 317 320 320 317 314 313 311 310 309 309 309 309
276 279 280 278 275 271 270 271 273 275 275 272 267 263 262 262 262 263 264 265 267 269 271 273 275 277 279 280 281 283 285 286 287 287 287 288 289 290 289 291 295 297 296 296 295 292 289 288 287 285 284 285 288 290 291 290 289 289 289 291 294 297 300 301 303 306 308 310 311 311 311 312 317 322 322 318 315 314 314 313 312 311 310 309 308
275 280 283 281 276 272 271 271 271 271 271 269 266 262 260 260 261 262 264 266 268 270 271 273 274 276 278 279 281 282 283 284 284 284 285 288 290 292 292 293 295 295 295 295 291 288 286 286 284 281 282 283 285 286 288 288 289 289 290 293 296 298 300 301 303 305 307 309 310 310 311 315 320 320 316 314 315 316 318 321 321 319 317 314 312
278 284 289 287 279 273 272 271 269 267 267 266 263 260 258 258 258 258 258 259 262 266 268 270 272 275 276 279 281 282 281 281 281 282 284 286 290 292 292 293 294 294 293 292 288 285 285 284 281 280 280 281 282 284 286 287 288 289 291 295 297 298 299 299 301 304 307 308 308 309 312 315 315 312 311 313 317 321 327 332 333 330 326 323 319
281 286 295 297 285 275 271 269 267 265 264 263 260 257 256 256 257 257 256 256 258 261 263 267 271 274 277 279 281 280 279 279 280 282 284 287 291 292 291 291 292 291 291 290 287 285 284 283 280 278 278 278 280 283 283 284 286 289 293 296 296 295 294 296 300 305 307 307 308 310 312 311 308 307 310 315 322 330 336 339 340 339 336 331 327
284 288 297 303 296 283 274 268 266 264 261 259 256 254 254 255 257 257 257 257 258 260 263 266 270 273 276 278 277 276 276 278 280 283 286 290 291 291 289 289 289 290 290 289 287 284 282 280 277 276 277 278 278 278 278 281 286 290 292 292 290 289 292 297 302 306 306 307 308 309 307 305 305 310 315 322 331 337 340 342 344 345 345 341 335
286 290 295 302 301 292 281 273 268 264 259 255 253 252 253 254 256 257 258 257 257 258 262 265 268 271 272 272 273 274 276 279 283 286 289 291 290 288 287 287 288 288 289 287 284 280 278 277 276 276 276 276 274 272 275 281 286 287 286 284 285 289 294 298 303 305 306 305 304 302 302 305 310 316 323 330 336 340 341 343 345 347 348 348 344
286 291 293 297 298 295 289 281 274 267 262 258 254 252 253 254 255 256 257 257 257 259 262 265 266 268 269 270 272 275 278 282 286 288 290 290 288 286 286 286 286 286 287 286 282 278 277 277 277 278 277 273 269 269 275 281 282 280 279 281 286 291 294 298 303 306 305 301 297 298 303 309 315 321 327 333 338 340 341 343 345 346 347 349 349
286 289 291 293 294 295 296 293 285 276 269 264 260 255 254 254 254 255 257 258 258 260 262 263 264 266 267 270 273 276 280 284 287 288 288 287 284 283 284 284 283 285 287 286 281 277 276 277 277 277 274 269 267 270 276 279 276 274 277 283 287 290 293 298 303 304 300 296 296 299 305 311 317 324 330 334 338 339 340 342 344 345 345 347 348
286 289 289 289 291 295 300 303 299 288 277 269 263 256 252 251 253 255 257 258 258 260 261 262 263 265 268 271 275 279 283 285 286 286 285 283 282 282 282 281 281 284 286 284 279 276 276 276 274 271 267 266 269 273 276 275 274 275 280 284 286 288 292 296 300 299 295 294 298 302 308 314 320 326 331 335 337 338 339 341 342 343 344 345 345
286 290 291 294 296 298 300 304 307 301 289 276 266 257 251 248 249 252 255 256 257 258 259 261 263 267 270 274 278 282 284 284 284 283 282 282 281 281 280 280 281 283 284 280 274 272 273 270 267 264 265 268 271 274 275 274 274 278 281 283 284 287 291 295 296 293 291 295 300 305 311 317 322 328 332 335 337 337 338 339 340 341 342 343 344
283 289 299 306 306 306 303 303 305 303 297 286 274 264 255 247 244 246 250 252 254 256 258 261 265 269 272 275 279 281 282 281 281 281 281 280 280 280 279 279 281 282 281 276 270 267 266 265 263 264 266 269 272 273 273 273 275 278 280 281 283 286 290 292 292 289 290 296 303 309 315 319 324 328 331 334 335 335 336 337 339 340 341 342 343
276 284 298 306 306 306 306 302 300 299 298 292 283 274 264 253 245 244 246 248 251 254 257 262 265 268 272 275 278 279 279 279 279 279 279 278 278 279 279 279 279 279 277 272 267 264 263 263 264 265 268 270 272 272 272 273 276 278 279 279 282 285 288 289 287 285 290 297 304 311 316 321 324 327 329 331 332 333 334 336 337 338 339 340 341
268 276 288 296 299 304 306 304 299 296 295 291 284 277 268 261 254 250 248 249 251 255 258 262 265 269 273 276 277 277 277 277 277 277 277 276 276 277 277 277 276 275 272 270 269 267 266 267 267 268 269 270 270 271 272 273 275 277 277 279 282 285 287 287 284 285 291 298 304 312 317 320 323 325 327 329 329 330 332 333 335 335 336 338 340
262 269 279 287 294 300 302 302 298 292 291 287 281 275 269 264 260 258 257 257 258 260 262 266 269 272 275 276 276 276 276 276 276 276 275 275 275 275 274 274 273 272 271 271 272 272 272 272 272 270 270 270 270 271 272 274 276 277 278 280 282 285 286 285 284 287 292 298 305 312 316 319 321 322 324 326 326 328 330 331 332 333 334 336 337
254 262 275 285 291 295 299 300 295 288 286 284 280 277 272 268 265 264 264 264 265 266 269 271 273 275 276 276 277 278 278 277 277 276 275 274 273 272 271 270 271 271 271 272 273 273 274 276 274 271 270 270 271 272 273 275 277 278 279 281 283 286 285 283 286 290 294 299 306 312 315 317 319 320 322 323 324 326 328 329 329 330 332 334 335
252 264 277 284 286 290 300 305 298 288 284 283 281 278 274 271 269 268 268 268 269 270 270 271 273 275 279 281 283 283 282 281 281 279 277 275 273 271 269 269 270 270 271 271 270 271 273 274 272 270 270 270 271 273 275 277 279 280 281 283 285 286 284 284 289 294 296 301 308 312 314 315 316 318 319 319 321 324 325 326 327 328 330 332 333
261 275 277 278 277 283 296 306 306 295 285 281 279 277 275 273 270 269 270 269 268 267 267 271 277 283 288 290 289 288 286 286 285 282 279 276 274 273 271 271 272 272 271 269 269 269 270 270 269 268 268 269 272 275 277 279 281 283 284 286 287 285 283 287 292 295 299 305 309 311 311 312 314 315 316 317 318 320 322 323 323 324 327 329 330
266 274 270 269 273 276 283 297 306 299 287 280 276 275 274 272 270 269 268 265 263 263 269 278 286 292 297 298 295 292 290 288 286 282 279 279 279 279 278 277 277 276 272 269 268 267 265 264 265 266 268 271 274 278 281 284 286 287 287 287 286 284 284 289 293 296 301 306 308 309 309 310 312 313 313 314 315 317 319 320 321 322 325 327 328
258 263 263 267 272 271 274 288 302 299 288 280 275 273 271 268 266 265 262 260 261 268 276 284 291 298 304 305 301 296 293 289 287 285 283 283 285 285 284 282 281 279 275 270 266 265 263 261 263 266 270 273 276 281 286 289 290 289 288 287 286 286 288 291 294 298 303 306 306 308 308 309 310 310 311 313 313 315 317 318 318 320 322 324 325
249 253 258 264 268 268 271 281 292 295 290 283 277 272 268 265 263 260 258 260 266 272 279 286 291 298 305 308 304 297 293 291 288 285 285 285 286 285 284 283 283 281 278 274 270 268 267 267 267 269 271 273 277 283 289 292 292 289 287 286 286 286 289 293 296 300 304 304 305 306 306 307 309 309 311 311 311 314 316 316 316 317 318 319 321
248 251 256 260 263 267 271 277 283 286 285 284 279 273 269 266 263 260 260 263 267 272 279 285 289 294 300 302 299 295 292 288 284 283 284 284 284 283 281 280 281 281 279 277 275 273 273 273 272 272 272 274 279 284 289 291 290 287 285 285 286 286 289 294 298 300 302 304 305 305 304 307 310 309 309 310 310 312 314 314 315 316 316 318 320
249 253 258 261 263 268 272 274 278 280 279 280 280 275 272 270 266 263 263 266 268 272 277 283 286 290 292 291 292 291 285 277 276 279 281 280 281 281 277 276 279 282 281 279 277 275 274 274 274 274 274 276 280 284 287 288 286 285 285 285 286 289 293 297 298 298 302 305 305 305 305 307 309 309 309 309 309 312 314 314 314 315 316 317 319
250 253 257 260 263 268 271 270 272 275 273 275 280 278 273 270 267 264 265 267 269 271 276 282 284 284 283 282 284 285 281 277 278 278 277 278 282 281 277 278 283 286 285 284 282 279 277 276 276 277 278 279 281 283 284 284 283 284 285 285 288 292 296 298 297 298 301 304 305 306 306 306 308 311 311 309 310 312 313 313 313 314 315 316 318
251 252 254 258 262 266 268 267 268 270 268 270 275 276 273 270 267 264 264 266 268 271 275 280 282 281 279 278 279 280 280 280 281 280 280 282 284 283 280 282 285 287 288 288 286 284 282 281 281 282 283 284 284 284 285 284 284 284 285 287 290 294 296 297 298 298 301 304 306 310 310 307 309 312 310 308 309 311 312 311 312 313 313 314 316
249 252 254 258 262 263 265 264 266 268 267 267 271 272 271 271 269 266 265 265 267 270 273 277 279 278 277 276 277 278 279 280 280 281 282 283 284 285 285 285 284 285 287 288 288 287 285 285 285 286 287 287 287 286 286 286 286 286 288 290 293 296 297 297 299 300 302 304 307 310 310 307 307 308 307 306 307 309 309 310 310 311 312 313 315
247 249 252 256 259 260 262 264 266 268 267 266 269 270 270 270 271 268 266 266 268 270 272 274 276 277 276 276 277 278 279 279 279 279 280 281 282 284 285 286 285 285 287 288 290 290 288 288 287 288 288 288 288 288 290 290 291 291 292 294 296 297 297 298 299 301 302 303 304 306 306 304 303 304 304 305 306 308 308 309 309 311 312 314 316
251 252 252 254 256 257 260 264 268 270 269 266 265 266 266 267 269 269 268 268 269 270 271 272 275 277 278 277 277 278 279 280 279 278 279 279 279 280 282 284 285 286 287 288 289 290 289 288 288 288 289 289 290 291 292 293 294 294 294 295 296 296 296 297 298 299 300 300 301 302 303 302 301 303 304 305 307 308 309 309 310 312 313 315 316
254 256 256 256 257 258 260 262 266 269 269 267 265 264 264 264 264 266 268 268 267 269 270 272 274 276 278 278 278 278 278 279 279 278 278 278 278 279 280 282 284 286 288 289 288 289 288 288 289 289 290 291 292 292 293 293 294 294 294 295 295 295 296 297 297 298 298 299 299 301 302 302 302 304 306 306 308 309 309 310 311 313 314 315 316
252 255 258 259 260 260 260 261 263 264 265 266 266 266 265 263 261 262 264 265 267 269 271 272 274 275 277 278 278 278 277 278 278 278 278 278 279 279 280 281 283 285 287 288 288 289 289 289 290 290 291 292 292 292 292 293 294 295 296 297 297 298 298 298 299 299 299 299 300 301 303 304 304 305 306 307 309 310 311 312 313 314 314 315 315
247 250 255 259 260 259 259 259 260 260 261 262 263 264 264 264 263 262 261 263 266 269 271 272 273 274 275 277 278 277 276 276 277 277 278 279 279 280 280 281 282 284 286 287 288 289 289 290 291 291 292 292 292 292 293 295 297 298 299 300 300 300 300 300 301 300 300 301 301 302 303 304 305 306 307 308 310 312 313 314 315 315 315 315 315